Regional Weather Roundup
Issued by NWS

Home | Current Version | Previous Version | Text Only | Print | Product List | Glossary On
Versions: 1 2 3 4 5 6 7 8 9 10 11 12 13 14 15 16 17 18 19 20 21 22 23 24 25 26 27 28 29 30 31 32 33 34 35 36 37 38 39 40 41 42 43 44 45 46 47 48 49 50
000
ASUS45 KABQ 302210
RWRNM
NEW MEXICO REGIONAL WEATHER ROUNDUP
NATIONAL WEATHER SERVICE ALBUQUERQUE NM
400 PM MDT MON MAY 30 2016

NOTE: "FAIR" MEANS FEW OR NO CLOUDS BELOW 12,000 FEET AGL WITH NO
       SIGNIFICANT WEATHER OR OBSTRUCTIONS TO VISION.

      THIS PRODUCT IS RELEASED AS TWO VERSIONS.  ONE VERSION NEAR
      THE TOP OF THE HOUR CONTAINING PRELIMINARY DATA FROM ALBUQUERQUE
      AND OTHER STATIONS.  A FINAL VERSION WITH ADDITIONAL DATA IS
      ISSUED ABOUT 10 MINUTES AFTER THE HOUR.

NMZ501-503-504-510>518-302300-
NORTHWEST PLATEAU/NORTHCENTRAL MOUNTAINS

CITY           SKY/WX    TMP DP  RH WIND       PRES   REMARKS
FARMINGTON     FAIR      80  11   7 W8        29.99F
LOS ALAMOS     FAIR      76  16  10 S9G17     30.10F
SANTA FE       FAIR      80  14   8 VRB6G18   30.04F
TAOS           FAIR      73  19  13 SW8G17    30.09F
ANGEL FIRE     FAIR      67  23  18 W16G25    30.16F

$$
NMZ402-403-502-505>509-302300-
WESTCENTRAL MOUNTAINS/SOUTHWEST MOUNTAINS

CITY           SKY/WX    TMP DP  RH WIND       PRES   REMARKS
GALLUP         FAIR      77  17  10 NW9G24    30.06F
GRANTS         FAIR      77  21  12 W12G22    30.08F
SILVER CITY      N/A     79  32  18 SW21G26   30.04F

$$
NMZ407-409-411-412-302300-
SOUTHERN DESERTS

CITY           SKY/WX    TMP DP  RH WIND       PRES   REMARKS
LORDSBURG      FAIR      81  43  26 W3        29.94F
DEMING         FAIR      80  45  28 SW6       29.94F
LAS CRUCES     FAIR      82  39  21 NW18      29.98R
HOLLOMAN AFB   FAIR      84  39  20 W21       29.93R
ALAMOGORDO     FAIR      84  36  17 SW14      29.94S
T OR C         FAIR      85  29  13 SW16G22   29.95F

$$
NMZ519>523-302300-
CENTRAL VALLEYS/CENTRAL HIGHLANDS

CITY           SKY/WX    TMP DP  RH WIND       PRES   REMARKS
ALBUQUERQUE    PTSUNNY   83  21  10 VRB5      29.98F
DOUBLE EAGLE   PTSUNNY   82  39  21 SW10      30.03F
MORIARTY ARPT  FAIR      82  16   8 SW8G16    30.05F
CLINES CORNERS FAIR      76  18  11 W10G25    30.08F
BELEN          FAIR      83  29  14 SE22G32   29.97F
SOCORRO        FAIR      85  30  14 S9G23     29.96F

$$
NMZ524>526-539-540-302300-
SOUTHCENTRAL MOUNTAINS

CITY           SKY/WX    TMP DP  RH WIND       PRES   REMARKS
RUIDOSO        LGT RAIN  66  39  37 W16G23    30.14S

$$
NMZ527>531-302300-
NORTHEAST HIGHLANDS/NORTHEAST PLAINS

CITY           SKY/WX    TMP DP  RH WIND       PRES   REMARKS
LAS VEGAS      FAIR      78  18  10 MISG      30.05F
RATON          PTSUNNY   78  33  19 SE14G20   30.00F
CLAYTON        FAIR      78  48  34 S15       29.96F

$$
NMZ532>537-302300-
EASTCENTRAL PLAINS

CITY           SKY/WX    TMP DP  RH WIND       PRES   REMARKS
TUCUMCARI      FAIR      88  36  15 SW13      29.90F
CANNON AFB     FAIR      85  51  31 S10       29.96F
CLOVIS AIRPORT FAIR      84  52  32 S12       29.96F

$$
NMZ028-029-538-302300-
SOUTHEAST PLAINS

CITY           SKY/WX    TMP DP  RH WIND       PRES   REMARKS
ROSWELL        FAIR      86  46  24 S24G35    29.94R
ARTESIA        FAIR      81  48  32 SE17G26   29.94F
CARLSBAD       LGT RAIN  73  62  68 SE8       29.94R
HOBBS          PTSUNNY   82  55  39 SE10      29.98F


$$




USA.gov is the U.S. government's official web portal to all federal, state and local government web resources and services.